Regional Weather Roundup
Issued by NWS

Home | Current Version | Previous Version | Graphics & Text | Print | Product List | Glossary On
Versions: 1 2 3 4 5 6 7 8 9 10 11 12 13 14 15 16 17 18 19 20 21 22 23 24 25 26 27 28 29 30 31 32 33 34 35 36 37 38 39 40 41 42 43 44 45 46 47 48 49 50
000
ASUS45 KSLC 010510
RWRUT

UTAH REGIONAL WEATHER ROUNDUP
NATIONAL WEATHER SERVICE SALT LAKE CITY UT
1100 PM MDT MON AUG 31 2015

UTZ001>011-023>025-010600-

NORTHERN UTAH

CITY           SKY/WX    TMP DP  RH WIND       PRES   REMARKS
BRIGHAM CITY   CLEAR     68  41  37 CALM      29.98R
HILL AFB       CLEAR     71  38  29 E14       30.00S
LOGAN          CLEAR     62  42  47 CALM      29.99F
OGDEN          CLEAR     70  38  31 S9        29.97F
PROVO AIRPORT  PTCLDY    68  45  42 SE9       30.00S
SALT LAKE CITY CLEAR     74  40  29 SE9       29.96S
VERNAL         PTCLDY    62  47  57 W6        30.13S
WENDOVER       CLEAR     73  34  23 N5        29.95F
HEBER CITY     CLEAR     59  43  55 CALM      30.10S
WEST JORDAN    CLEAR     70  43  37 CALM      30.00S

$$

UTZ012>022-026-027-010600-

SOUTHERN/CENTRAL UTAH

CITY           SKY/WX    TMP DP  RH WIND       PRES   REMARKS
BLANDING       CLOUDY    66  46  46 NE5       30.25S
BRYCE CANYON   PTCLDY    53  43  68 W3        30.30S
CEDAR CITY     PTCLDY    71  42  35 SE5       30.11S
DELTA          PTCLDY    72  32  23 S10       30.01R
HANKSVILLE     CLOUDY    73  52  46 CALM      30.05R
MILFORD        CLEAR     73  37  27 S10       30.03S
MOAB/CYNLANDS  CLEAR     73  50  44 E5        30.04S
PRICE          PTCLDY    61  49  64 VRB3      30.15S
ST GEORGE      PTCLDY    84  52  32 E18       29.92S
KANAB          MOCLDY    73  50  43 NE9       30.15F

$$

REGIONAL REPORTS     COLORADO/ARIZONA

CITY           SKY/WX    TMP DP  RH WIND       PRES   REMARKS
CRAIG, CO      MOCLDY    58  46  64 E6        30.22S
GRAND JUNCTION MOCLDY    71  53  52 CALM      30.10R
RIFLE          CLOUDY    63  51  65 CALM      30.18S
MONTROSE       CLOUDY    66  52  60 E7        30.19R
CORTEZ         CLEAR     65  48  54 NE6       30.19R
PAGE, AZ       CLEAR     76  55  48 S12G20    30.06S
GRAND CANYON   MOCLDY    62  51  67 SE6         N/A
KINGMAN        CLEAR     81  47  30 S12       29.97R
FLAGSTAFF      PTCLDY    55  51  86 CALM      30.30F

$$

REGIONAL REPORTS    NEVADA/IDAHO/WYOMING

CITY           SKY/WX    TMP DP  RH WIND       PRES   REMARKS
LAS VEGAS, NV  CLEAR     91  34  13 S7        29.80R
ELY            CLEAR     66  30  26 S13       30.10R
ELKO           CLEAR     64  27  24 CALM      29.99S
POCATELLO, ID  CLEAR     59  36  42 CALM      30.01S
BURLEY         CLEAR     59  41  51 S3        29.97S
EVANSTON, WY   CLEAR     61  32  33 SE9       30.20S
ROCK SPRINGS   CLEAR     60  42  51 S8        30.17S
KEMMERER       CLEAR     57  27  30 NW3       30.20F

$$


USA.gov is the U.S. government's official web portal to all federal, state and local government web resources and services.